Time,TemperatureF,DewpointF,PressureIn,WindDirection,WindDirectionDegrees,WindSpeedMPH,WindSpeedGustMPH,Humidity,HourlyPrecipIn,Conditions,Clouds,dailyrainin,SoftwareType,DateUTC
2013-03-25 00:02:00,30.0,28.0,29.59,NE,48,3.0,5.0,91,0.00,,,0.00,,2013-03-25 04:02:00,
2013-03-25 00:13:00,30.0,28.0,29.59,NE,48,3.0,5.0,91,0.00,,,0.00,,2013-03-25 04:13:00,
2013-03-25 00:23:00,29.0,27.0,29.59,NW,311,3.0,6.0,93,0.00,,,0.00,,2013-03-25 04:23:00,
2013-03-25 00:33:00,29.0,27.0,29.58,NNE,28,5.0,7.0,94,0.00,,,0.00,,2013-03-25 04:33:00,
2013-03-25 00:43:00,29.0,27.0,29.58,NNE,28,5.0,7.0,94,0.00,,,0.00,,2013-03-25 04:43:00,
2013-03-25 00:52:00,29.0,27.0,29.58,NNE,15,3.0,6.0,94,0.00,,,0.00,,2013-03-25 04:52:00,
2013-03-25 01:03:00,29.0,28.0,29.57,East,85,5.0,8.0,95,0.00,,,0.00,,2013-03-25 05:03:00,
2013-03-25 01:12:00,29.0,28.0,29.57,East,85,5.0,8.0,95,0.00,,,0.00,,2013-03-25 05:12:00,
2013-03-25 01:22:00,29.0,28.0,29.57,NE,34,3.0,5.0,95,0.00,,,0.00,,2013-03-25 05:22:00,
2013-03-25 01:32:00,29.0,28.0,29.57,NE,37,3.0,8.0,95,0.00,,,0.00,,2013-03-25 05:32:00,
2013-03-25 01:42:00,29.0,28.0,29.57,NE,37,3.0,8.0,95,0.00,,,0.00,,2013-03-25 05:42:00,
2013-03-25 01:53:00,29.0,28.0,29.57,NNE,18,4.0,7.0,95,0.00,,,0.00,,2013-03-25 05:53:00,
2013-03-25 02:02:00,29.0,28.0,29.57,NNE,23,3.0,6.0,95,0.00,,,0.00,,2013-03-25 06:02:00,
2013-03-25 02:12:00,29.0,28.0,29.57,NNE,23,3.0,6.0,95,0.00,,,0.00,,2013-03-25 06:12:00,
2013-03-25 02:22:00,29.0,28.0,29.57,NNE,14,5.0,9.0,95,0.00,,,0.00,,2013-03-25 06:22:00,
2013-03-25 02:32:00,29.0,28.0,29.57,NE,34,4.0,6.0,95,0.00,,,0.00,,2013-03-25 06:32:00,
2013-03-25 02:42:00,29.0,28.0,29.57,NE,34,4.0,6.0,95,0.00,,,0.00,,2013-03-25 06:42:00,
2013-03-25 02:53:00,29.0,28.0,29.57,NNE,27,4.0,7.0,95,0.00,,,0.00,,2013-03-25 06:53:00,
2013-03-25 03:02:00,29.0,28.0,29.57,NNE,20,6.0,10.0,95,0.00,,,0.00,,2013-03-25 07:02:00,
2013-03-25 03:12:00,29.0,28.0,29.57,NNE,20,6.0,10.0,95,0.00,,,0.00,,2013-03-25 07:12:00,
2013-03-25 03:22:00,29.0,28.0,29.57,NNW,346,5.0,9.0,95,0.00,,,0.00,,2013-03-25 07:22:00,
2013-03-25 03:32:00,29.0,28.0,29.57,NNE,18,5.0,9.0,95,0.00,,,0.00,,2013-03-25 07:32:00,
2013-03-25 03:42:00,29.0,28.0,29.57,NNE,18,5.0,9.0,95,0.00,,,0.00,,2013-03-25 07:42:00,
2013-03-25 03:53:00,29.0,28.0,29.57,North,8,5.0,10.0,95,0.00,,,0.00,,2013-03-25 07:53:00,
2013-03-25 04:03:00,29.0,28.0,29.56,North,4,5.0,10.0,95,0.00,,,0.00,,2013-03-25 08:03:00,
2013-03-25 04:12:00,29.0,28.0,29.56,North,4,5.0,10.0,95,0.00,,,0.00,,2013-03-25 08:12:00,
2013-03-25 04:23:00,29.0,28.0,29.56,NNE,13,6.0,9.0,95,0.00,,,0.00,,2013-03-25 08:23:00,
2013-03-25 04:32:00,29.0,28.0,29.56,NNE,18,6.0,11.0,95,0.00,,,0.00,,2013-03-25 08:32:00,
2013-03-25 04:43:00,29.0,28.0,29.56,NNE,18,6.0,11.0,95,0.00,,,0.00,,2013-03-25 08:43:00,
2013-03-25 04:52:00,29.0,28.0,29.56,NNE,18,5.0,10.0,95,0.00,,,0.00,,2013-03-25 08:52:00,
2013-03-25 05:02:00,29.0,28.0,29.56,NNE,31,7.0,12.0,95,0.00,,,0.00,,2013-03-25 09:02:00,
2013-03-25 05:12:00,29.0,28.0,29.56,NNE,31,7.0,12.0,95,0.00,,,0.00,,2013-03-25 09:12:00,
2013-03-25 05:22:00,29.0,28.0,29.57,North,2,6.0,10.0,95,0.00,,,0.00,,2013-03-25 09:22:00,
2013-03-25 05:33:00,29.0,28.0,29.56,NNW,338,7.0,13.0,95,0.00,,,0.00,,2013-03-25 09:33:00,
2013-03-25 05:43:00,29.0,28.0,29.56,NNW,338,7.0,13.0,95,0.00,,,0.00,,2013-03-25 09:43:00,
2013-03-25 05:53:00,29.0,28.0,29.57,NNE,20,6.0,11.0,95,0.00,,,0.00,,2013-03-25 09:53:00,
2013-03-25 06:03:00,29.0,28.0,29.57,NNW,328,6.0,10.0,95,0.00,,,0.00,,2013-03-25 10:03:00,
2013-03-25 06:12:00,29.0,28.0,29.57,NNW,328,6.0,10.0,95,0.00,,,0.00,,2013-03-25 10:12:00,
2013-03-25 06:23:00,29.0,28.0,29.57,NNE,21,6.0,13.0,95,0.00,,,0.00,,2013-03-25 10:23:00,
2013-03-25 06:33:00,29.0,28.0,29.57,North,6,5.0,9.0,95,0.00,,,0.00,,2013-03-25 10:33:00,
2013-03-25 06:42:00,29.0,28.0,29.57,North,6,5.0,9.0,95,0.00,,,0.00,,2013-03-25 10:42:00,
2013-03-25 06:54:00,29.0,27.0,29.57,North,356,5.0,10.0,94,0.00,,,0.00,,2013-03-25 10:54:00,
2013-03-25 07:03:00,29.0,27.0,29.58,NNE,16,6.0,10.0,94,0.00,,,0.00,,2013-03-25 11:03:00,
2013-03-25 07:12:00,29.0,27.0,29.58,NNE,16,6.0,10.0,94,0.00,,,0.00,,2013-03-25 11:12:00,
2013-03-25 07:23:00,29.0,27.0,29.58,NW,326,6.0,12.0,94,0.00,,,0.00,,2013-03-25 11:23:00,
2013-03-25 07:32:00,29.0,27.0,29.59,NNW,333,6.0,11.0,94,0.00,,,0.00,,2013-03-25 11:32:00,
2013-03-25 07:42:00,29.0,27.0,29.59,NNW,333,6.0,11.0,94,0.00,,,0.00,,2013-03-25 11:42:00,
2013-03-25 07:53:00,29.0,27.0,29.59,NNW,339,6.0,11.0,94,0.00,,,0.00,,2013-03-25 11:53:00,
2013-03-25 08:03:00,29.0,27.0,29.59,North,356,5.0,10.0,94,0.00,,,0.00,,2013-03-25 12:03:00,
2013-03-25 08:13:00,29.0,27.0,29.59,North,356,5.0,10.0,94,0.00,,,0.00,,2013-03-25 12:13:00,
2013-03-25 08:23:00,29.0,27.0,29.60,North,349,5.0,9.0,94,0.00,,,0.00,,2013-03-25 12:23:00,
2013-03-25 08:32:00,30.0,28.0,29.60,NNW,345,5.0,10.0,94,0.00,,,0.00,,2013-03-25 12:32:00,
2013-03-25 08:43:00,30.0,28.0,29.60,NNW,345,5.0,10.0,94,0.00,,,0.00,,2013-03-25 12:43:00,
2013-03-25 08:54:00,30.0,29.0,29.61,North,354,5.0,9.0,95,0.00,,,0.00,,2013-03-25 12:54:00,
2013-03-25 09:03:00,30.0,29.0,29.62,NNW,347,5.0,9.0,95,0.00,,,0.00,,2013-03-25 13:03:00,
2013-03-25 09:13:00,30.0,29.0,29.62,NNW,347,5.0,9.0,95,0.00,,,0.00,,2013-03-25 13:13:00,
2013-03-25 09:23:00,30.0,29.0,29.62,North,352,5.0,10.0,95,0.00,,,0.00,,2013-03-25 13:23:00,
2013-03-25 09:32:00,31.0,30.0,29.63,North,352,6.0,9.0,95,0.00,,,0.00,,2013-03-25 13:32:00,
2013-03-25 09:43:00,31.0,30.0,29.63,North,352,6.0,9.0,95,0.00,,,0.00,,2013-03-25 13:43:00,
2013-03-25 09:53:00,31.0,29.0,29.64,NNW,344,7.0,10.0,94,0.00,,,0.00,,2013-03-25 13:53:00,
2013-03-25 10:03:00,31.0,29.0,29.64,NNE,17,5.0,9.0,94,0.00,,,0.00,,2013-03-25 14:03:00,
2013-03-25 10:12:00,31.0,29.0,29.64,NNE,17,5.0,9.0,94,0.00,,,0.00,,2013-03-25 14:12:00,
2013-03-25 10:23:00,32.0,30.0,29.65,NW,326,5.0,8.0,94,0.00,,,0.00,,2013-03-25 14:23:00,
2013-03-25 10:32:00,32.0,30.0,29.65,North,350,6.0,9.0,94,0.00,,,0.00,,2013-03-25 14:32:00,
2013-03-25 10:43:00,32.0,30.0,29.65,North,350,6.0,9.0,94,0.00,,,0.00,,2013-03-25 14:43:00,
2013-03-25 10:53:00,32.0,30.0,29.65,NNW,328,4.0,9.0,94,0.00,,,0.00,,2013-03-25 14:53:00,
2013-03-25 11:03:00,32.0,30.0,29.66,NNW,335,5.0,10.0,93,0.00,,,0.00,,2013-03-25 15:03:00,
2013-03-25 11:13:00,32.0,30.0,29.66,NNW,335,5.0,10.0,93,0.00,,,0.00,,2013-03-25 15:13:00,
2013-03-25 11:23:00,32.0,30.0,29.66,NNE,30,5.0,9.0,92,0.00,,,0.00,,2013-03-25 15:23:00,
2013-03-25 11:33:00,33.0,31.0,29.67,NNW,342,7.0,10.0,91,0.00,,,0.00,,2013-03-25 15:33:00,
2013-03-25 11:43:00,33.0,31.0,29.67,NNW,342,7.0,10.0,91,0.00,,,0.00,,2013-03-25 15:43:00,
2013-03-25 11:54:00,33.0,30.0,29.67,NW,319,7.0,11.0,90,0.00,,,0.00,,2013-03-25 15:54:00,
2013-03-25 12:03:00,33.0,30.0,29.68,North,8,5.0,10.0,87,0.00,,,0.00,,2013-03-25 16:03:00,
2013-03-25 12:12:00,33.0,30.0,29.68,North,8,5.0,10.0,87,0.00,,,0.00,,2013-03-25 16:12:00,
2013-03-25 12:23:00,33.0,30.0,29.68,North,8,5.0,10.0,87,0.00,,,0.00,,2013-03-25 16:23:00,
2013-03-25 12:33:00,35.0,29.0,29.69,NNW,329,5.0,12.0,79,0.00,,,0.00,,2013-03-25 16:33:00,
2013-03-25 12:43:00,35.0,29.0,29.69,NNW,329,5.0,12.0,79,0.00,,,0.00,,2013-03-25 16:43:00,
2013-03-25 12:53:00,36.0,29.0,29.70,NNE,23,5.0,10.0,77,0.00,,,0.00,,2013-03-25 16:53:00,
2013-03-25 13:03:00,36.0,28.0,29.70,North,356,7.0,15.0,73,0.00,,,0.00,,2013-03-25 17:03:00,
2013-03-25 13:13:00,36.0,28.0,29.70,North,356,7.0,15.0,73,0.00,,,0.00,,2013-03-25 17:13:00,
2013-03-25 13:24:00,37.0,28.0,29.70,NNE,15,7.0,12.0,71,0.00,,,0.00,,2013-03-25 17:24:00,
2013-03-25 13:33:00,37.0,28.0,29.71,NNE,28,9.0,13.0,69,0.00,,,0.00,,2013-03-25 17:33:00,
2013-03-25 13:43:00,37.0,28.0,29.71,NNE,28,9.0,13.0,69,0.00,,,0.00,,2013-03-25 17:43:00,
2013-03-25 13:53:00,37.0,28.0,29.72,NW,318,7.0,12.0,71,0.00,,,0.00,,2013-03-25 17:53:00,
2013-03-25 14:03:00,38.0,28.0,29.72,North,11,10.0,14.0,68,0.00,,,0.00,,2013-03-25 18:03:00,
2013-03-25 14:13:00,38.0,28.0,29.72,North,11,10.0,14.0,68,0.00,,,0.00,,2013-03-25 18:13:00,
2013-03-25 14:23:00,38.0,28.0,29.72,NNE,18,6.0,16.0,68,0.01,,,0.01,,2013-03-25 18:23:00,
2013-03-25 14:33:00,38.0,28.0,29.73,North,351,6.0,13.0,68,0.03,,,0.03,,2013-03-25 18:33:00,
2013-03-25 14:43:00,38.0,28.0,29.73,North,351,6.0,13.0,68,0.03,,,0.03,,2013-03-25 18:43:00,
2013-03-25 14:53:00,37.0,27.0,29.73,NNE,27,9.0,15.0,68,0.04,,,0.04,,2013-03-25 18:53:00,
2013-03-25 15:03:00,37.0,27.0,29.74,NNW,328,10.0,18.0,67,0.05,,,0.05,,2013-03-25 19:03:00,
2013-03-25 15:13:00,37.0,27.0,29.74,NNW,328,10.0,18.0,67,0.05,,,0.05,,2013-03-25 19:13:00,
2013-03-25 15:23:00,37.0,27.0,29.74,NNE,27,7.0,13.0,68,0.04,,,0.05,,2013-03-25 19:23:00,
2013-03-25 15:33:00,37.0,28.0,29.75,North,355,6.0,12.0,69,0.03,,,0.06,,2013-03-25 19:33:00,
2013-03-25 15:43:00,37.0,28.0,29.75,North,355,6.0,12.0,69,0.03,,,0.06,,2013-03-25 19:43:00,
2013-03-25 15:53:00,37.0,28.0,29.76,NNE,23,8.0,14.0,70,0.02,,,0.06,,2013-03-25 19:53:00,
2013-03-25 16:02:00,37.0,28.0,29.76,North,360,8.0,15.0,70,0.02,,,0.07,,2013-03-25 20:02:00,
2013-03-25 16:12:00,37.0,28.0,29.76,North,360,8.0,15.0,70,0.02,,,0.07,,2013-03-25 20:12:00,
2013-03-25 16:22:00,36.0,28.0,29.77,NW,317,7.0,10.0,73,0.02,,,0.07,,2013-03-25 20:22:00,
2013-03-25 16:32:00,36.0,29.0,29.78,NNW,346,7.0,12.0,74,0.01,,,0.07,,2013-03-25 20:32:00,
2013-03-25 16:42:00,36.0,29.0,29.78,NNW,346,7.0,12.0,74,0.01,,,0.07,,2013-03-25 20:42:00,
2013-03-25 16:52:00,36.0,28.0,29.78,NNE,20,7.0,11.0,73,0.02,,,0.08,,2013-03-25 20:52:00,
2013-03-25 17:03:00,37.0,29.0,29.78,North,8,7.0,11.0,73,0.01,,,0.08,,2013-03-25 21:03:00,
2013-03-25 17:13:00,37.0,29.0,29.78,North,8,7.0,11.0,73,0.01,,,0.08,,2013-03-25 21:13:00,
2013-03-25 17:22:00,37.0,29.0,29.79,NNE,23,5.0,11.0,73,0.01,,,0.08,,2013-03-25 21:22:00,
2013-03-25 17:33:00,37.0,29.0,29.80,WNW,294,7.0,14.0,72,0.01,,,0.08,,2013-03-25 21:33:00,
2013-03-25 17:43:00,37.0,29.0,29.80,WNW,294,7.0,14.0,72,0.01,,,0.08,,2013-03-25 21:43:00,
2013-03-25 17:52:00,37.0,29.0,29.81,NNW,342,5.0,10.0,72,0.01,,,0.09,,2013-03-25 21:52:00,
2013-03-25 18:03:00,37.0,28.0,29.82,NNE,17,6.0,12.0,71,0.01,,,0.09,,2013-03-25 22:03:00,
2013-03-25 18:13:00,37.0,28.0,29.82,NNE,17,6.0,12.0,71,0.01,,,0.09,,2013-03-25 22:13:00,
2013-03-25 18:23:00,37.0,30.0,29.82,NW,321,6.0,13.0,75,0.01,,,0.09,,2013-03-25 22:23:00,
2013-03-25 18:33:00,36.0,30.0,29.83,NNW,339,9.0,15.0,78,0.01,,,0.09,,2013-03-25 22:33:00,
2013-03-25 18:42:00,36.0,30.0,29.83,NNW,339,9.0,15.0,78,0.01,,,0.09,,2013-03-25 22:42:00,
2013-03-25 18:52:00,35.0,29.0,29.84,North,6,8.0,13.0,80,0.00,,,0.09,,2013-03-25 22:52:00,
2013-03-25 19:03:00,35.0,30.0,29.85,NW,306,7.0,11.0,81,0.00,,,0.09,,2013-03-25 23:03:00,
2013-03-25 19:12:00,35.0,30.0,29.85,NW,306,7.0,11.0,81,0.00,,,0.09,,2013-03-25 23:12:00,
2013-03-25 19:23:00,35.0,30.0,29.86,NW,317,5.0,9.0,82,0.00,,,0.09,,2013-03-25 23:23:00,
2013-03-25 19:32:00,35.0,30.0,29.87,NW,307,5.0,11.0,83,0.00,,,0.09,,2013-03-25 23:32:00,
2013-03-25 19:43:00,35.0,30.0,29.87,NW,307,5.0,11.0,83,0.00,,,0.09,,2013-03-25 23:43:00,
2013-03-25 19:53:00,35.0,31.0,29.88,NNW,327,6.0,9.0,85,0.00,,,0.09,,2013-03-25 23:53:00,
2013-03-25 20:02:00,34.0,30.0,29.88,NW,314,6.0,9.0,86,0.00,,,0.09,,2013-03-26 00:02:00,
2013-03-25 20:12:00,34.0,30.0,29.88,NW,314,6.0,9.0,86,0.00,,,0.09,,2013-03-26 00:12:00,
2013-03-25 20:22:00,34.0,30.0,29.89,NW,324,7.0,10.0,86,0.00,,,0.09,,2013-03-26 00:22:00,
2013-03-25 20:32:00,34.0,30.0,29.90,NW,325,6.0,11.0,86,0.00,,,0.09,,2013-03-26 00:32:00,
2013-03-25 20:42:00,34.0,30.0,29.90,NW,325,6.0,11.0,86,0.00,,,0.09,,2013-03-26 00:42:00,
2013-03-25 20:52:00,34.0,30.0,29.91,NW,326,5.0,10.0,85,0.00,,,0.09,,2013-03-26 00:52:00,
2013-03-25 21:02:00,34.0,30.0,29.91,North,1,5.0,10.0,84,0.00,,,0.09,,2013-03-26 01:02:00,
2013-03-25 21:12:00,34.0,30.0,29.91,North,1,5.0,10.0,84,0.00,,,0.09,,2013-03-26 01:12:00,
2013-03-25 21:23:00,34.0,29.0,29.92,NNW,329,7.0,11.0,82,0.00,,,0.09,,2013-03-26 01:23:00,
2013-03-25 21:32:00,34.0,29.0,29.93,NNW,327,6.0,9.0,82,0.00,,,0.09,,2013-03-26 01:32:00,
2013-03-25 21:42:00,34.0,29.0,29.93,NNW,327,6.0,9.0,82,0.00,,,0.09,,2013-03-26 01:42:00,
2013-03-25 21:53:00,35.0,30.0,29.93,NNW,330,6.0,9.0,81,0.00,,,0.09,,2013-03-26 01:53:00,
2013-03-25 22:02:00,35.0,30.0,29.94,North,1,6.0,11.0,81,0.00,,,0.09,,2013-03-26 02:02:00,
2013-03-25 22:12:00,35.0,30.0,29.94,North,1,6.0,11.0,81,0.00,,,0.09,,2013-03-26 02:12:00,
2013-03-25 22:22:00,34.0,29.0,29.94,NW,315,7.0,11.0,81,0.00,,,0.09,,2013-03-26 02:22:00,
2013-03-25 22:32:00,34.0,29.0,29.95,NW,310,4.0,10.0,82,0.00,,,0.09,,2013-03-26 02:32:00,
2013-03-25 22:43:00,34.0,29.0,29.95,NW,310,4.0,10.0,82,0.00,,,0.09,,2013-03-26 02:43:00,
2013-03-25 22:52:00,34.0,29.0,29.95,NNW,329,3.0,9.0,82,0.00,,,0.09,,2013-03-26 02:52:00,
2013-03-25 23:02:00,34.0,29.0,29.96,NNW,328,6.0,9.0,81,0.00,,,0.09,,2013-03-26 03:02:00,
2013-03-25 23:12:00,34.0,29.0,29.96,NNW,328,6.0,9.0,81,0.00,,,0.09,,2013-03-26 03:12:00,
2013-03-25 23:22:00,34.0,29.0,29.96,NW,325,4.0,10.0,82,0.00,,,0.09,,2013-03-26 03:22:00,
2013-03-25 23:34:00,34.0,29.0,29.97,NW,314,4.0,7.0,82,0.00,,,0.09,,2013-03-26 03:34:00,
2013-03-25 23:42:00,34.0,29.0,29.97,NW,314,4.0,7.0,82,0.00,,,0.09,,2013-03-26 03:42:00,
2013-03-25 23:53:00,34.0,29.0,29.97,NNW,328,5.0,9.0,82,0.00,,,0.09,,2013-03-26 03:53:00,